Year,Month,Day,Hour,Minute,Value (Times are PST for temperature in C)
2014,08,26,00,00,21.00
2014,08,26,00,01,21.10
2014,08,26,00,02,21.10
2014,08,26,00,03,21.20
2014,08,26,00,04,21.20
2014,08,26,00,05,21.20
2014,08,26,00,06,21.30
2014,08,26,00,07,21.30
2014,08,26,00,08,21.30
2014,08,26,00,09,21.30
2014,08,26,00,10,21.30
2014,08,26,00,11,21.30
2014,08,26,00,12,21.30
2014,08,26,00,13,21.30
2014,08,26,00,14,21.30
2014,08,26,00,15,21.30
2014,08,26,00,16,21.30
2014,08,26,00,17,21.30
2014,08,26,00,18,21.30
2014,08,26,00,19,21.30
2014,08,26,00,20,21.20
2014,08,26,00,21,21.20
2014,08,26,00,22,21.20
2014,08,26,00,23,21.20
2014,08,26,00,24,21.10
2014,08,26,00,25,21.10
2014,08,26,00,26,21.10
2014,08,26,00,27,21.10
2014,08,26,00,28,21.10
2014,08,26,00,29,21.00
2014,08,26,00,30,21.00
2014,08,26,00,31,20.90
2014,08,26,00,32,20.90
2014,08,26,00,33,20.90
2014,08,26,00,34,20.90
2014,08,26,00,35,20.90
2014,08,26,00,36,20.80
2014,08,26,00,37,20.80
2014,08,26,00,38,20.80
2014,08,26,00,39,20.80
2014,08,26,00,40,20.80
2014,08,26,00,41,20.80
2014,08,26,00,42,20.80
2014,08,26,00,43,20.80
2014,08,26,00,44,20.80
2014,08,26,00,45,20.80
2014,08,26,00,46,20.80
2014,08,26,00,47,20.80
2014,08,26,00,48,20.80
2014,08,26,00,49,20.80
2014,08,26,00,50,20.80
2014,08,26,00,51,20.70
2014,08,26,00,52,20.70
2014,08,26,00,53,20.60
2014,08,26,00,54,20.60
2014,08,26,00,55,20.50
2014,08,26,00,56,20.50
2014,08,26,00,57,20.40
2014,08,26,00,58,20.40
2014,08,26,00,59,20.30
2014,08,26,01,00,20.30
2014,08,26,01,01,20.30
2014,08,26,01,02,20.20
2014,08,26,01,03,20.20
2014,08,26,01,04,20.10
2014,08,26,01,05,20.10
2014,08,26,01,06,20.10
2014,08,26,01,07,20.10
2014,08,26,01,08,20.10
2014,08,26,01,09,20.10
2014,08,26,01,10,20.10
2014,08,26,01,11,20.10
2014,08,26,01,12,20.10
2014,08,26,01,13,20.10
2014,08,26,01,14,20.10
2014,08,26,01,15,20.10
2014,08,26,01,16,20.10
2014,08,26,01,17,20.10
2014,08,26,01,18,20.10
2014,08,26,01,19,20.00
2014,08,26,01,20,20.00
2014,08,26,01,21,20.00
2014,08,26,01,22,20.00
2014,08,26,01,23,20.10
2014,08,26,01,24,20.10
2014,08,26,01,25,20.10
2014,08,26,01,26,20.10
2014,08,26,01,27,20.10
2014,08,26,01,28,20.10
2014,08,26,01,29,20.10
2014,08,26,01,30,20.20
2014,08,26,01,31,20.20
2014,08,26,01,32,20.20
2014,08,26,01,33,20.20
2014,08,26,01,34,20.20
2014,08,26,01,35,20.20
2014,08,26,01,36,20.20
2014,08,26,01,37,20.20
2014,08,26,01,38,20.20
2014,08,26,01,39,20.20
2014,08,26,01,40,20.30
2014,08,26,01,41,20.30
2014,08,26,01,42,20.30
2014,08,26,01,43,20.30
2014,08,26,01,44,20.30
2014,08,26,01,45,20.30
2014,08,26,01,46,20.40
2014,08,26,01,47,20.40
2014,08,26,01,48,20.40
2014,08,26,01,49,20.40
2014,08,26,01,50,20.40
2014,08,26,01,51,20.40
2014,08,26,01,52,20.40
2014,08,26,01,53,20.40
2014,08,26,01,54,20.30
2014,08,26,01,55,20.30
2014,08,26,01,56,20.30
2014,08,26,01,57,20.30
2014,08,26,01,58,20.20
2014,08,26,01,59,20.20
2014,08,26,02,00,20.20
2014,08,26,02,01,20.20
2014,08,26,02,02,20.20
2014,08,26,02,03,20.20
2014,08,26,02,04,20.10
2014,08,26,02,05,20.10
2014,08,26,02,06,20.10
2014,08,26,02,07,20.00
2014,08,26,02,08,20.00
2014,08,26,02,09,19.90
2014,08,26,02,10,19.90
2014,08,26,02,11,19.90
2014,08,26,02,12,19.90
2014,08,26,02,13,19.80
2014,08,26,02,14,19.80
2014,08,26,02,15,19.80
2014,08,26,02,16,19.80
2014,08,26,02,17,19.80
2014,08,26,02,18,19.70
2014,08,26,02,19,19.70
2014,08,26,02,20,19.70
2014,08,26,02,21,19.70
2014,08,26,02,22,19.70
2014,08,26,02,23,19.70
2014,08,26,02,24,19.70
2014,08,26,02,25,19.60
2014,08,26,02,26,19.60
2014,08,26,02,27,19.60
2014,08,26,02,28,19.60
2014,08,26,02,29,19.60
2014,08,26,02,30,19.60
2014,08,26,02,31,19.50
2014,08,26,02,32,19.50
2014,08,26,02,33,19.50
2014,08,26,02,34,19.40
2014,08,26,02,35,19.40
2014,08,26,02,36,19.40
2014,08,26,02,37,19.30
2014,08,26,02,38,19.30
2014,08,26,02,39,19.30
2014,08,26,02,40,19.30
2014,08,26,02,41,19.20
2014,08,26,02,42,19.20
2014,08,26,02,43,19.20
2014,08,26,02,44,19.20
2014,08,26,02,45,19.10
2014,08,26,02,46,19.10
2014,08,26,02,47,19.10
2014,08,26,02,48,19.10
2014,08,26,02,49,19.00
2014,08,26,02,50,19.00
2014,08,26,02,51,19.00
2014,08,26,02,52,18.90
2014,08,26,02,53,18.90
2014,08,26,02,54,18.90
2014,08,26,02,55,18.90
2014,08,26,02,56,18.80
2014,08,26,02,57,18.80
2014,08,26,02,58,18.80
2014,08,26,02,59,18.70
2014,08,26,03,00,18.70
2014,08,26,03,01,18.70
2014,08,26,03,02,18.70
2014,08,26,03,03,18.70
2014,08,26,03,04,18.70
2014,08,26,03,05,18.70
2014,08,26,03,06,18.60
2014,08,26,03,07,18.60
2014,08,26,03,08,18.60
2014,08,26,03,09,18.50
2014,08,26,03,10,18.50
2014,08,26,03,11,18.50
2014,08,26,03,12,18.40
2014,08,26,03,13,18.40
2014,08,26,03,14,18.40
2014,08,26,03,15,18.40
2014,08,26,03,16,18.40
2014,08,26,03,17,18.40
2014,08,26,03,18,18.40
2014,08,26,03,19,18.40
2014,08,26,03,20,18.40
2014,08,26,03,21,18.40
2014,08,26,03,22,18.40
2014,08,26,03,23,18.40
2014,08,26,03,24,18.40
2014,08,26,03,25,18.40
2014,08,26,03,26,18.40
2014,08,26,03,27,18.30
2014,08,26,03,28,18.30
2014,08,26,03,29,18.30
2014,08,26,03,30,18.30
2014,08,26,03,31,18.30
2014,08,26,03,32,18.30
2014,08,26,03,33,18.30
2014,08,26,03,34,18.30
2014,08,26,03,35,18.40
2014,08,26,03,36,18.40
2014,08,26,03,37,18.40
2014,08,26,03,38,18.40
2014,08,26,03,39,18.40
2014,08,26,03,40,18.30
2014,08,26,03,41,18.30
2014,08,26,03,42,18.30
2014,08,26,03,43,18.30
2014,08,26,03,44,18.30
2014,08,26,03,45,18.30
2014,08,26,03,46,18.30
2014,08,26,03,47,18.30
2014,08,26,03,48,18.30
2014,08,26,03,49,18.20
2014,08,26,03,50,18.20
2014,08,26,03,51,18.20
2014,08,26,03,52,18.20
2014,08,26,03,53,18.20
2014,08,26,03,54,18.20
2014,08,26,03,55,18.10
2014,08,26,03,56,18.10
2014,08,26,03,57,18.10
2014,08,26,03,58,18.10
2014,08,26,03,59,18.10
2014,08,26,04,00,18.00
2014,08,26,04,01,18.00
2014,08,26,04,02,18.00
2014,08,26,04,03,17.90
2014,08,26,04,04,17.90
2014,08,26,04,05,17.90
2014,08,26,04,06,17.90
2014,08,26,04,07,17.90
2014,08,26,04,08,17.90
2014,08,26,04,09,17.90
2014,08,26,04,10,17.90
2014,08,26,04,11,17.90
2014,08,26,04,12,17.90
2014,08,26,04,13,17.90
2014,08,26,04,14,17.90
2014,08,26,04,15,17.90
2014,08,26,04,16,17.90
2014,08,26,04,17,17.90
2014,08,26,04,18,17.90
2014,08,26,04,19,17.90
2014,08,26,04,20,17.90
2014,08,26,04,21,17.90
2014,08,26,04,22,18.00
2014,08,26,04,23,18.00
2014,08,26,04,24,18.00
2014,08,26,04,25,18.00
2014,08,26,04,26,18.00
2014,08,26,04,27,18.00
2014,08,26,04,28,17.90
2014,08,26,04,29,17.90
2014,08,26,04,30,17.90
2014,08,26,04,31,17.90
2014,08,26,04,32,17.90
2014,08,26,04,33,17.90
2014,08,26,04,34,17.90
2014,08,26,04,35,17.90
2014,08,26,04,36,17.80
2014,08,26,04,37,17.80
2014,08,26,04,38,17.80
2014,08,26,04,39,17.80
2014,08,26,04,40,17.80
2014,08,26,04,41,17.80
2014,08,26,04,42,17.80
2014,08,26,04,43,17.80
2014,08,26,04,44,17.80
2014,08,26,04,45,17.90
2014,08,26,04,46,17.90
2014,08,26,04,47,17.90
2014,08,26,04,48,17.90
2014,08,26,04,49,17.90
2014,08,26,04,50,17.90
2014,08,26,04,51,17.80
2014,08,26,04,52,17.80
2014,08,26,04,53,17.80
2014,08,26,04,54,17.80
2014,08,26,04,55,17.80
2014,08,26,04,56,17.80
2014,08,26,04,57,17.70
2014,08,26,04,58,17.70
2014,08,26,04,59,17.70
2014,08,26,05,00,17.70
2014,08,26,05,01,17.60
2014,08,26,05,02,17.60
2014,08,26,05,03,17.60
2014,08,26,05,04,17.60
2014,08,26,05,05,17.60
2014,08,26,05,06,17.60
2014,08,26,05,07,17.60
2014,08,26,05,08,17.60
2014,08,26,05,09,17.60
2014,08,26,05,10,17.60
2014,08,26,05,11,17.60
2014,08,26,05,12,17.60
2014,08,26,05,13,17.60
2014,08,26,05,14,17.60
2014,08,26,05,15,17.60
2014,08,26,05,16,17.60
2014,08,26,05,17,17.60
2014,08,26,05,18,17.60
2014,08,26,05,19,17.60
2014,08,26,05,20,17.60
2014,08,26,05,21,17.70
2014,08,26,05,22,17.70
2014,08,26,05,23,17.60
2014,08,26,05,24,17.60
2014,08,26,05,25,17.60
2014,08,26,05,26,17.60
2014,08,26,05,27,17.50
2014,08,26,05,28,17.50
2014,08,26,05,29,17.50
2014,08,26,05,30,17.40
2014,08,26,05,31,17.40
2014,08,26,05,32,17.30
2014,08,26,05,33,17.30
2014,08,26,05,34,17.30
2014,08,26,05,35,17.30
2014,08,26,05,36,17.30
2014,08,26,05,37,17.30
2014,08,26,05,38,17.20
2014,08,26,05,39,17.20
2014,08,26,05,40,17.20
2014,08,26,05,41,17.30
2014,08,26,05,42,17.30
2014,08,26,05,43,17.30
2014,08,26,05,44,17.30
2014,08,26,05,45,17.30
2014,08,26,05,46,17.30
2014,08,26,05,47,17.30
2014,08,26,05,48,17.30
2014,08,26,05,49,17.30
2014,08,26,05,50,17.30
2014,08,26,05,51,17.30
2014,08,26,05,52,17.30
2014,08,26,05,53,17.30
2014,08,26,05,54,17.30
2014,08,26,05,55,17.30
2014,08,26,05,56,17.30
2014,08,26,05,57,17.30
2014,08,26,05,58,17.30
2014,08,26,05,59,17.30
2014,08,26,06,00,17.30
2014,08,26,06,01,17.30
2014,08,26,06,02,17.30
2014,08,26,06,03,17.30
2014,08,26,06,04,17.30
2014,08,26,06,05,17.30
2014,08,26,06,06,17.30
2014,08,26,06,07,17.30
2014,08,26,06,08,17.30
2014,08,26,06,09,17.30
2014,08,26,06,10,17.20
2014,08,26,06,11,17.20
2014,08,26,06,12,17.20
2014,08,26,06,13,17.20
2014,08,26,06,14,17.10
2014,08,26,06,15,17.10
2014,08,26,06,16,17.10
2014,08,26,06,17,17.10
2014,08,26,06,18,17.10
2014,08,26,06,19,17.10
2014,08,26,06,20,17.10
2014,08,26,06,21,17.10
2014,08,26,06,22,17.10
2014,08,26,06,23,17.10
2014,08,26,06,24,17.10
2014,08,26,06,25,17.10
2014,08,26,06,26,17.00
2014,08,26,06,27,17.00
2014,08,26,06,28,17.00
2014,08,26,06,29,17.00
2014,08,26,06,30,17.00
2014,08,26,06,31,17.00
2014,08,26,06,32,17.00
2014,08,26,06,33,17.00
2014,08,26,06,34,17.00
2014,08,26,06,35,17.10
2014,08,26,06,36,17.10
2014,08,26,06,37,17.10
2014,08,26,06,38,17.10
2014,08,26,06,39,17.10
2014,08,26,06,40,17.10
2014,08,26,06,41,17.10
2014,08,26,06,42,17.10
2014,08,26,06,43,17.10
2014,08,26,06,44,17.10
2014,08,26,06,45,17.10
2014,08,26,06,46,17.10
2014,08,26,06,47,17.10
2014,08,26,06,48,17.00
2014,08,26,06,49,17.00
2014,08,26,06,50,17.00
2014,08,26,06,51,17.00
2014,08,26,06,52,17.00
2014,08,26,06,53,17.00
2014,08,26,06,54,17.00
2014,08,26,06,55,17.00
2014,08,26,06,56,17.00
2014,08,26,06,57,17.10
2014,08,26,06,58,17.10
2014,08,26,06,59,17.10
2014,08,26,07,00,17.10
2014,08,26,07,01,17.20
2014,08,26,07,02,17.20
2014,08,26,07,03,17.20
2014,08,26,07,04,17.20
2014,08,26,07,05,17.20
2014,08,26,07,06,17.20
2014,08,26,07,07,17.30
2014,08,26,07,08,17.30
2014,08,26,07,09,17.30
2014,08,26,07,10,17.30
2014,08,26,07,11,17.30
2014,08,26,07,12,17.40
2014,08,26,07,13,17.40
2014,08,26,07,14,17.50
2014,08,26,07,15,17.50
2014,08,26,07,16,17.60
2014,08,26,07,17,17.60
2014,08,26,07,18,17.60
2014,08,26,07,19,17.60
2014,08,26,07,20,17.70
2014,08,26,07,21,17.70
2014,08,26,07,22,17.70
2014,08,26,07,23,17.70
2014,08,26,07,24,17.70
2014,08,26,07,25,17.80
2014,08,26,07,26,17.80
2014,08,26,07,27,17.80
2014,08,26,07,28,17.80
2014,08,26,07,29,17.90
2014,08,26,07,30,17.90
2014,08,26,07,31,17.90
2014,08,26,07,32,18.00
2014,08,26,07,33,18.00
2014,08,26,07,34,18.10
2014,08,26,07,35,18.10
2014,08,26,07,36,18.20
2014,08,26,07,37,18.30
2014,08,26,07,38,18.30
2014,08,26,07,39,18.40
2014,08,26,07,40,18.50
2014,08,26,07,41,18.50
2014,08,26,07,42,18.60
2014,08,26,07,43,18.70
2014,08,26,07,44,18.80
2014,08,26,07,45,18.90
2014,08,26,07,46,19.00
2014,08,26,07,47,19.10
2014,08,26,07,48,19.20
2014,08,26,07,49,19.30
2014,08,26,07,50,19.30
2014,08,26,07,51,19.40
2014,08,26,07,52,19.50
2014,08,26,07,53,19.60
2014,08,26,07,54,19.70
2014,08,26,07,55,19.90
2014,08,26,07,56,20.00
2014,08,26,07,57,20.10
2014,08,26,07,58,20.20
2014,08,26,07,59,20.20
2014,08,26,08,00,20.30
2014,08,26,08,01,20.40
2014,08,26,08,02,20.40
2014,08,26,08,03,20.50
2014,08,26,08,04,20.60
2014,08,26,08,05,20.60
2014,08,26,08,06,20.70
2014,08,26,08,07,20.80
2014,08,26,08,08,20.80
2014,08,26,08,09,20.80
2014,08,26,08,10,20.90
2014,08,26,08,11,20.80
2014,08,26,08,12,20.80
2014,08,26,08,13,20.80
2014,08,26,08,14,20.80
2014,08,26,08,15,20.80
2014,08,26,08,16,20.90
2014,08,26,08,17,21.00
2014,08,26,08,18,21.00
2014,08,26,08,19,21.10
2014,08,26,08,20,21.20
2014,08,26,08,21,21.20
2014,08,26,08,22,21.30
2014,08,26,08,23,21.30
2014,08,26,08,24,21.30
2014,08,26,08,25,21.30
2014,08,26,08,26,21.40
2014,08,26,08,27,21.40
2014,08,26,08,28,21.50
2014,08,26,08,29,21.60
2014,08,26,08,30,21.60
2014,08,26,08,31,21.60
2014,08,26,08,32,21.60
2014,08,26,08,33,21.70
2014,08,26,08,34,21.80
2014,08,26,08,35,21.80
2014,08,26,08,36,21.80
2014,08,26,08,37,21.80
2014,08,26,08,38,21.80
2014,08,26,08,39,21.80
2014,08,26,08,40,21.70
2014,08,26,08,41,21.60
2014,08,26,08,42,21.50
2014,08,26,08,43,21.50
2014,08,26,08,44,21.50
2014,08,26,08,45,21.40
2014,08,26,08,46,21.40
2014,08,26,08,47,21.30
2014,08,26,08,48,21.40
2014,08,26,08,49,21.50
2014,08,26,08,50,21.60
2014,08,26,08,51,21.70
2014,08,26,08,52,21.80
2014,08,26,08,53,21.80
2014,08,26,08,54,21.90
2014,08,26,08,55,21.90
2014,08,26,08,56,22.00
2014,08,26,08,57,22.00
2014,08,26,08,58,22.00
2014,08,26,08,59,22.00
2014,08,26,09,00,22.00
2014,08,26,09,01,22.00
2014,08,26,09,02,22.00
2014,08,26,09,03,22.00
2014,08,26,09,04,22.00
2014,08,26,09,05,21.90
2014,08,26,09,06,21.90
2014,08,26,09,07,22.00
2014,08,26,09,08,22.00
2014,08,26,09,09,22.10
2014,08,26,09,10,22.10
2014,08,26,09,11,22.10
2014,08,26,09,12,22.10
2014,08,26,09,13,22.20
2014,08,26,09,14,22.20
2014,08,26,09,15,22.20
2014,08,26,09,16,22.30
2014,08,26,09,17,22.30
2014,08,26,09,18,22.30
2014,08,26,09,19,22.30
2014,08,26,09,20,22.30
2014,08,26,09,21,22.30
2014,08,26,09,22,22.30
2014,08,26,09,23,22.20
2014,08,26,09,24,22.20
2014,08,26,09,25,22.20
2014,08,26,09,26,22.20
2014,08,26,09,27,22.20
2014,08,26,09,28,22.30
2014,08,26,09,29,22.30
2014,08,26,09,30,22.30
2014,08,26,09,31,22.20
2014,08,26,09,32,22.20
2014,08,26,09,33,22.10
2014,08,26,09,34,22.00
2014,08,26,09,35,21.90
2014,08,26,09,36,21.90
2014,08,26,09,37,21.90
2014,08,26,09,38,22.00
2014,08,26,09,39,22.10
2014,08,26,09,40,22.20
2014,08,26,09,41,22.20
2014,08,26,09,42,22.20
2014,08,26,09,43,22.10
2014,08,26,09,44,22.10
2014,08,26,09,45,22.10
2014,08,26,09,46,22.20
2014,08,26,09,47,22.30
2014,08,26,09,48,22.40
2014,08,26,09,49,22.50
2014,08,26,09,50,22.60
2014,08,26,09,51,22.60
2014,08,26,09,52,22.60
2014,08,26,09,53,22.60
2014,08,26,09,54,22.60
2014,08,26,09,55,22.60
2014,08,26,09,56,22.50
2014,08,26,09,57,22.50
2014,08,26,09,58,22.50
2014,08,26,09,59,22.50
2014,08,26,10,00,22.60
2014,08,26,10,01,22.60
2014,08,26,10,02,22.60
2014,08,26,10,03,22.60
2014,08,26,10,04,22.70
2014,08,26,10,05,22.70
2014,08,26,10,06,22.80
2014,08,26,10,07,22.80
2014,08,26,10,08,22.80
2014,08,26,10,09,22.90
2014,08,26,10,10,22.90
2014,08,26,10,11,22.90
2014,08,26,10,12,22.90
2014,08,26,10,13,22.90
2014,08,26,10,14,22.90
2014,08,26,10,15,23.00
2014,08,26,10,16,22.90
2014,08,26,10,17,22.90
2014,08,26,10,18,22.90
2014,08,26,10,19,22.90
2014,08,26,10,20,22.90
2014,08,26,10,21,22.90
2014,08,26,10,22,23.00
2014,08,26,10,23,23.10
2014,08,26,10,24,23.10
2014,08,26,10,25,23.10
2014,08,26,10,26,23.00
2014,08,26,10,27,23.00
2014,08,26,10,28,22.90
2014,08,26,10,29,22.90
2014,08,26,10,30,22.90
2014,08,26,10,31,22.90
2014,08,26,10,32,22.90
2014,08,26,10,33,23.00
2014,08,26,10,34,23.00
2014,08,26,10,35,23.00
2014,08,26,10,36,22.90
2014,08,26,10,37,22.90
2014,08,26,10,38,22.90
2014,08,26,10,39,23.00
2014,08,26,10,40,23.10
2014,08,26,10,41,23.10
2014,08,26,10,42,23.10
2014,08,26,10,43,23.00
2014,08,26,10,44,22.90
2014,08,26,10,45,22.80
2014,08,26,10,46,22.70
2014,08,26,10,47,22.60
2014,08,26,10,48,22.60
2014,08,26,10,49,22.60
2014,08,26,10,50,22.70
2014,08,26,10,51,22.70
2014,08,26,10,52,22.70
2014,08,26,10,53,22.80
2014,08,26,10,54,22.90
2014,08,26,10,55,23.00
2014,08,26,10,56,23.00
2014,08,26,10,57,23.10
2014,08,26,10,58,23.10
2014,08,26,10,59,23.20
2014,08,26,11,00,23.30
2014,08,26,11,01,23.30
2014,08,26,11,02,23.30
2014,08,26,11,03,23.30
2014,08,26,11,04,23.30
2014,08,26,11,05,23.30
2014,08,26,11,06,23.30
2014,08,26,11,07,23.30
2014,08,26,11,08,23.30
2014,08,26,11,09,23.30
2014,08,26,11,10,23.30
2014,08,26,11,11,23.30
2014,08,26,11,12,23.30
2014,08,26,11,13,23.40
2014,08,26,11,14,23.40
2014,08,26,11,15,23.40
2014,08,26,11,16,23.50
2014,08,26,11,17,23.50
2014,08,26,11,18,23.60
2014,08,26,11,19,23.60
2014,08,26,11,20,23.70
2014,08,26,11,21,23.70
2014,08,26,11,22,23.70
2014,08,26,11,23,23.80
2014,08,26,11,24,23.60
2014,08,26,11,25,23.50
2014,08,26,11,26,23.40
2014,08,26,11,27,23.50
2014,08,26,11,28,23.50
2014,08,26,11,29,23.50
2014,08,26,11,30,23.40
2014,08,26,11,31,23.30
2014,08,26,11,32,23.30
2014,08,26,11,33,23.30
2014,08,26,11,34,23.30
2014,08,26,11,35,23.30
2014,08,26,11,36,23.40
2014,08,26,11,37,23.50
2014,08,26,11,38,23.60
2014,08,26,11,39,23.60
2014,08,26,11,40,23.60
2014,08,26,11,41,23.60
2014,08,26,11,42,23.60
2014,08,26,11,43,23.70
2014,08,26,11,44,23.70
2014,08,26,11,45,23.80
2014,08,26,11,46,23.80
2014,08,26,11,47,23.80
2014,08,26,11,48,23.80
2014,08,26,11,49,23.80
2014,08,26,11,50,23.70
2014,08,26,11,51,23.70
2014,08,26,11,52,23.70
2014,08,26,11,53,23.70
2014,08,26,11,54,23.80
2014,08,26,11,55,23.80
2014,08,26,11,56,23.80
2014,08,26,11,57,23.90
2014,08,26,11,58,23.90
2014,08,26,11,59,24.00
2014,08,26,12,00,24.00
2014,08,26,12,01,24.00
2014,08,26,12,02,24.00
2014,08,26,12,03,23.90
2014,08,26,12,04,23.80
2014,08,26,12,05,23.80
2014,08,26,12,06,23.80
2014,08,26,12,07,23.80
2014,08,26,12,08,23.80
2014,08,26,12,09,23.90
2014,08,26,12,10,23.90
2014,08,26,12,11,23.90
2014,08,26,12,12,24.00
2014,08,26,12,13,24.10
2014,08,26,12,14,24.20
2014,08,26,12,15,24.20
2014,08,26,12,16,24.30
2014,08,26,12,17,24.30
2014,08,26,12,18,24.40
2014,08,26,12,19,24.40
2014,08,26,12,20,24.40
2014,08,26,12,21,24.40
2014,08,26,12,22,24.40
2014,08,26,12,23,24.40
2014,08,26,12,24,24.40
2014,08,26,12,25,24.50
2014,08,26,12,26,24.50
2014,08,26,12,27,24.50
2014,08,26,12,28,24.60
2014,08,26,12,29,24.60
2014,08,26,12,30,24.60
2014,08,26,12,31,24.70
2014,08,26,12,32,24.70
2014,08,26,12,33,24.70
2014,08,26,12,34,24.70
2014,08,26,12,35,24.70
2014,08,26,12,36,24.70
2014,08,26,12,37,24.70
2014,08,26,12,38,24.70
2014,08,26,12,39,24.80
2014,08,26,12,40,24.80
2014,08,26,12,41,24.80
2014,08,26,12,42,24.80
2014,08,26,12,43,24.70
2014,08,26,12,44,24.80
2014,08,26,12,45,24.80
2014,08,26,12,46,24.80
2014,08,26,12,47,24.80
2014,08,26,12,48,24.80
2014,08,26,12,49,24.80
2014,08,26,12,50,24.90
2014,08,26,12,51,25.00
2014,08,26,12,52,25.00
2014,08,26,12,53,25.00
2014,08,26,12,54,25.00
2014,08,26,12,55,25.00
2014,08,26,12,56,25.10
2014,08,26,12,57,25.10
2014,08,26,12,58,25.10
2014,08,26,12,59,25.00
2014,08,26,13,00,25.00
2014,08,26,13,01,25.00
2014,08,26,13,02,25.00
2014,08,26,13,03,24.90
2014,08,26,13,04,24.90
2014,08,26,13,05,25.00
2014,08,26,13,06,25.00
2014,08,26,13,07,25.10
2014,08,26,13,08,25.10
2014,08,26,13,09,25.10
2014,08,26,13,10,25.20
2014,08,26,13,11,25.20
2014,08,26,13,12,25.20
2014,08,26,13,13,25.20
2014,08,26,13,14,25.20
2014,08,26,13,15,25.20
2014,08,26,13,16,25.20
2014,08,26,13,17,25.20
2014,08,26,13,18,25.20
2014,08,26,13,19,25.20
2014,08,26,13,20,25.20
2014,08,26,13,21,25.20
2014,08,26,13,22,25.20
2014,08,26,13,23,25.20
2014,08,26,13,24,25.20
2014,08,26,13,25,25.30
2014,08,26,13,26,25.30
2014,08,26,13,27,25.30
2014,08,26,13,28,25.30
2014,08,26,13,29,25.30
2014,08,26,13,30,25.20
2014,08,26,13,31,25.20
2014,08,26,13,32,25.20
2014,08,26,13,33,25.20
2014,08,26,13,34,25.10
2014,08,26,13,35,25.00
2014,08,26,13,36,25.00
2014,08,26,13,37,25.00
2014,08,26,13,38,25.10
2014,08,26,13,39,25.10
2014,08,26,13,40,25.20
2014,08,26,13,41,25.20
2014,08,26,13,42,25.10
2014,08,26,13,43,25.10
2014,08,26,13,44,25.10
2014,08,26,13,45,25.20
2014,08,26,13,46,25.40
2014,08,26,13,47,25.40
2014,08,26,13,48,25.40
2014,08,26,13,49,25.40
2014,08,26,13,50,25.40
2014,08,26,13,51,25.40
2014,08,26,13,52,25.30
2014,08,26,13,53,25.30
2014,08,26,13,54,25.30
2014,08,26,13,55,25.30
2014,08,26,13,56,25.40
2014,08,26,13,57,25.40
2014,08,26,13,58,25.50
2014,08,26,13,59,25.50
2014,08,26,14,00,25.60
2014,08,26,14,01,25.60
2014,08,26,14,02,25.60
2014,08,26,14,03,25.60
2014,08,26,14,04,25.60
2014,08,26,14,05,25.70
2014,08,26,14,06,25.80
2014,08,26,14,07,25.80
2014,08,26,14,08,25.70
2014,08,26,14,09,25.70
2014,08,26,14,10,25.80
2014,08,26,14,11,25.80
2014,08,26,14,12,25.70
2014,08,26,14,13,25.70
2014,08,26,14,14,25.70
2014,08,26,14,15,25.70
2014,08,26,14,16,25.70
2014,08,26,14,17,25.70
2014,08,26,14,18,25.70
2014,08,26,14,19,25.80
2014,08,26,14,20,25.80
2014,08,26,14,21,25.90
2014,08,26,14,22,25.90
2014,08,26,14,23,26.00
2014,08,26,14,24,26.10
2014,08,26,14,25,26.10
2014,08,26,14,26,26.00
2014,08,26,14,27,25.90
2014,08,26,14,28,25.80
2014,08,26,14,29,25.80
2014,08,26,14,30,25.80
2014,08,26,14,31,25.80
2014,08,26,14,32,25.70
2014,08,26,14,33,25.60
2014,08,26,14,34,25.60
2014,08,26,14,35,25.60
2014,08,26,14,36,25.60
2014,08,26,14,37,25.60
2014,08,26,14,38,25.60
2014,08,26,14,39,25.50
2014,08,26,14,40,25.40
2014,08,26,14,41,25.30
2014,08,26,14,42,25.30
2014,08,26,14,43,25.20
2014,08,26,14,44,25.10
2014,08,26,14,45,25.00
2014,08,26,14,46,24.90
2014,08,26,14,47,24.80
2014,08,26,14,48,24.80
2014,08,26,14,49,24.80
2014,08,26,14,50,24.70
2014,08,26,14,51,24.60
2014,08,26,14,52,24.60
2014,08,26,14,53,24.60
2014,08,26,14,54,24.70
2014,08,26,14,55,24.70
2014,08,26,14,56,24.70
2014,08,26,14,57,24.80
2014,08,26,14,58,24.80
2014,08,26,14,59,24.90
2014,08,26,15,00,25.10
2014,08,26,15,01,25.20
2014,08,26,15,02,25.20
2014,08,26,15,03,25.30
2014,08,26,15,04,25.20
2014,08,26,15,05,25.10
2014,08,26,15,06,24.90
2014,08,26,15,07,24.70
2014,08,26,15,08,24.60
2014,08,26,15,09,24.60
2014,08,26,15,10,24.60
2014,08,26,15,11,24.60
2014,08,26,15,12,24.60
2014,08,26,15,13,24.60
2014,08,26,15,14,24.70
2014,08,26,15,15,24.60
2014,08,26,15,16,24.50
2014,08,26,15,17,24.30
2014,08,26,15,18,24.10
2014,08,26,15,19,24.00
2014,08,26,15,20,23.90
2014,08,26,15,21,23.80
2014,08,26,15,22,23.80
2014,08,26,15,23,23.70
2014,08,26,15,24,23.60
2014,08,26,15,25,23.60
2014,08,26,15,26,23.70
2014,08,26,15,27,23.80
2014,08,26,15,28,23.80
2014,08,26,15,29,23.80
2014,08,26,15,30,23.90
2014,08,26,15,31,23.90
2014,08,26,15,32,24.00
2014,08,26,15,33,24.10
2014,08,26,15,34,24.20
2014,08,26,15,35,24.30
2014,08,26,15,36,24.40
2014,08,26,15,37,24.40
2014,08,26,15,38,24.50
2014,08,26,15,39,24.60
2014,08,26,15,40,24.70
2014,08,26,15,41,24.80
2014,08,26,15,42,24.80
2014,08,26,15,43,24.90
2014,08,26,15,44,24.80
2014,08,26,15,45,24.80
2014,08,26,15,46,24.80
2014,08,26,15,47,24.90
2014,08,26,15,48,24.90
2014,08,26,15,49,25.00
2014,08,26,15,50,25.10
2014,08,26,15,51,25.10
2014,08,26,15,52,25.10
2014,08,26,15,53,25.20
2014,08,26,15,54,25.20
2014,08,26,15,55,25.10
2014,08,26,15,56,25.10
2014,08,26,15,57,25.10
2014,08,26,15,58,25.10
2014,08,26,15,59,25.20
2014,08,26,16,00,25.30
2014,08,26,16,01,25.30
2014,08,26,16,02,25.30
2014,08,26,16,03,25.30
2014,08,26,16,04,25.40
2014,08,26,16,05,25.50
2014,08,26,16,06,25.50
2014,08,26,16,07,25.60
2014,08,26,16,08,25.60
2014,08,26,16,09,25.60
2014,08,26,16,10,25.50
2014,08,26,16,11,25.50
2014,08,26,16,12,25.50
2014,08,26,16,13,25.40
2014,08,26,16,14,25.40
2014,08,26,16,15,25.40
2014,08,26,16,16,25.40
2014,08,26,16,17,25.30
2014,08,26,16,18,25.30
2014,08,26,16,19,25.20
2014,08,26,16,20,25.30
2014,08,26,16,21,25.30
2014,08,26,16,22,25.30
2014,08,26,16,23,25.30
2014,08,26,16,24,25.30
2014,08,26,16,25,25.30
2014,08,26,16,26,25.30
2014,08,26,16,27,25.30
2014,08,26,16,28,25.30
2014,08,26,16,29,25.40
2014,08,26,16,30,25.40
2014,08,26,16,31,25.30
2014,08,26,16,32,25.20
2014,08,26,16,33,25.20
2014,08,26,16,34,25.10
2014,08,26,16,35,25.00
2014,08,26,16,36,25.00
2014,08,26,16,37,24.90
2014,08,26,16,38,24.90
2014,08,26,16,39,24.90
2014,08,26,16,40,24.90
2014,08,26,16,41,24.90
2014,08,26,16,42,24.90
2014,08,26,16,43,24.90
2014,08,26,16,44,25.00
2014,08,26,16,45,25.10
2014,08,26,16,46,25.20
2014,08,26,16,47,25.30
2014,08,26,16,48,25.40
2014,08,26,16,49,25.50
2014,08,26,16,50,25.50
2014,08,26,16,51,25.60
2014,08,26,16,52,25.70
2014,08,26,16,53,25.70
2014,08,26,16,54,25.80
2014,08,26,16,55,25.80
2014,08,26,16,56,25.90
2014,08,26,16,57,25.90
2014,08,26,16,58,25.90
2014,08,26,16,59,26.00
2014,08,26,17,00,26.00
2014,08,26,17,01,26.10
2014,08,26,17,02,26.10
2014,08,26,17,03,26.20
2014,08,26,17,04,26.30
2014,08,26,17,05,26.30
2014,08,26,17,06,26.40
2014,08,26,17,07,26.40
2014,08,26,17,08,26.50
2014,08,26,17,09,26.60
2014,08,26,17,10,26.60
2014,08,26,17,11,26.70
2014,08,26,17,12,26.90
2014,08,26,17,13,27.00
2014,08,26,17,14,27.10
2014,08,26,17,15,27.00
2014,08,26,17,16,27.00
2014,08,26,17,17,27.00
2014,08,26,17,18,26.90
2014,08,26,17,19,26.90